DECAYED

STARLINK-1100, 44943 (Decayed)

Orbit data source: Space-Track

STARLINK-1100, 44943 was a payload satellite owned by SpaceX/Seattle (US) in LEO that was launched on Tue, 07 Jan 2020 UTC via an FALCON 9 launch vehicle from the Air Force Eastern Test Range (AFETR). Payloads include a variety of satellites, spacecraft, and rockets equipped with specific instruments for various scientific and technological missions. These include communications satellites like Starlink; space stations such as the ISS; scientific satellites like the Hubble; Earth observation satellites from companies like Planet Labs, Umbra, and HawkEye 360; GPS; miniature CubeSats for education and research; and military/defense satellites.

Not visible in the next 10 days
STARLINK-1100 details
Identifier
44943, 2020-001AF
Orbit
Decayed
Last TLE update4 months ago
Origin
Flag of USSpaceX/Seattle (US)
ManufacturerSpaceX/Seattle
MissionDecayed Commercial Communications
Bus & MotorSTARLINK, Unknown motor
Mass260 kg wet, ~248 kg dry
Launch date (UTC)
2020-01-07 (5 years ago)
Launch vehicle
FALCON 9
Launch site
Air Force Eastern Test Range (AFETR)
Object type
Payload
Rocket body
Debris
Shape & HBRBox + 1 Pan, 8.86 m
Radar Cross Section13.562 m², Large (>1 m²)

Expand to show TLE details & history

TLE from 4 months ago
0 STARLINK-1100
1 44943U 20001AF  24229.39749808  .33137268  12409-4  25993-2 0  9997
2 44943  53.0256 289.2103 0004082 344.2138 122.2916 16.39387773255235
Epoch: 2024-08-16T09:32Z
Definitive object data (Epoch: 2024-08-16T09:32:23.834Z)
Latitude50.13635°
Longitude-62.84735°
Altitude174.65 km
Speed7.807 km/s
True Right ascension03h 02m 05s
True Declination49° 57' 07"
Sunlit
Object was in daylight at TLE epoch
Visualization observer readout
Observer readout values are unavailable because the object's trajectory could not be propagated. This is usually caused when the trajectory data is faulty or the object's orbit has decayed.
Visualization observer readout
Observer readout values are unavailable because the object's trajectory could not be propagated. This is usually caused when the trajectory data is faulty or the object's orbit has decayed.
Orbital elements
Apogee altitude170.394 km
Perigee altitude165.05 km
Semi-major axis6,545.859 km
Eccentricity0.0004082
Inclination53.0256°
RAAN289.2103°
Arg. of periapsis344.2138°
True anomaly122.33113°
Mean anomaly122.2916°
Eccentric anomaly122.31137°
Mean motion4.0982 °/min
BSTAR0.0025993
Orbital period87.84 mins
Loading maneuver chart data...

STARLINK-1100 Visibility forecast

Observer location: undefined°, undefined

This satellite is decayed
Span
Click to sort rows by Start time (UTC) header in descending order
Start Az.
Max El. time (UTC)
Max El. Az.
Max El.
End time (UTC)
End Az.
|